TimePST,TemperatureF,Dew PointF,Humidity,Sea Level PressureIn,VisibilityMPH,Wind Direction,Wind SpeedMPH,Gust SpeedMPH,PrecipitationIn,Events,Conditions,WindDirDegrees,DateUTC
12:15 AM,50.0,21.2,32,30.32,10.0,ENE,8.1,-,N/A,,Unknown,60,2013-02-15 08:15:00
12:35 AM,50.0,23.0,35,30.32,10.0,NNE,8.1,-,N/A,,Unknown,30,2013-02-15 08:35:00
12:55 AM,50.0,21.2,32,30.32,10.0,North,9.2,-,N/A,,Unknown,360,2013-02-15 08:55:00
1:15 AM,46.4,23.0,40,30.32,10.0,Calm,Calm,-,N/A,,Unknown,0,2013-02-15 09:15:00
1:35 AM,48.2,23.0,37,30.32,10.0,North,6.9,-,N/A,,Unknown,10,2013-02-15 09:35:00
1:55 AM,46.4,23.0,40,30.32,10.0,East,5.8,-,N/A,,Unknown,90,2013-02-15 09:55:00
2:15 AM,48.2,23.0,37,30.32,10.0,NE,8.1,-,N/A,,Unknown,50,2013-02-15 10:15:00
2:35 AM,50.0,23.0,35,30.32,10.0,NNE,6.9,-,N/A,,Unknown,30,2013-02-15 10:35:00
2:55 AM,48.2,23.0,37,30.32,10.0,NNW,3.5,-,N/A,,Unknown,340,2013-02-15 10:55:00
3:15 AM,48.2,23.0,37,30.32,10.0,NE,5.8,-,N/A,,Unknown,40,2013-02-15 11:15:00
3:35 AM,46.4,21.2,37,30.32,10.0,Calm,Calm,-,N/A,,Unknown,0,2013-02-15 11:35:00
4:15 AM,46.4,23.0,40,30.33,10.0,Calm,Calm,-,N/A,,Unknown,0,2013-02-15 12:15:00
4:35 AM,46.4,21.2,37,30.34,10.0,NNE,6.9,-,N/A,,Unknown,30,2013-02-15 12:35:00
4:55 AM,48.2,19.4,32,30.34,10.0,North,9.2,-,N/A,,Unknown,360,2013-02-15 12:55:00
5:15 AM,46.4,21.2,37,30.34,10.0,North,10.4,-,N/A,,Unknown,350,2013-02-15 13:15:00
5:35 AM,46.4,19.4,34,30.35,10.0,NNE,9.2,-,N/A,,Unknown,30,2013-02-15 13:35:00
5:55 AM,48.2,19.4,32,30.35,10.0,NE,9.2,-,N/A,,Unknown,40,2013-02-15 13:55:00
6:15 AM,48.2,19.4,32,30.36,10.0,North,8.1,-,N/A,,Unknown,360,2013-02-15 14:15:00
6:35 AM,48.2,19.4,32,30.36,10.0,NNW,11.5,-,N/A,,Unknown,340,2013-02-15 14:35:00
6:55 AM,46.4,21.2,37,30.37,10.0,NNW,8.1,-,N/A,,Unknown,330,2013-02-15 14:55:00
7:15 AM,50.0,19.4,30,30.38,10.0,NNW,10.4,-,N/A,,Unknown,340,2013-02-15 15:15:00
7:35 AM,51.8,19.4,28,30.39,10.0,NNW,10.4,-,N/A,,Unknown,340,2013-02-15 15:35:00
7:55 AM,51.8,19.4,28,30.40,10.0,North,8.1,-,N/A,,Unknown,360,2013-02-15 15:55:00
8:15 AM,53.6,19.4,26,30.41,10.0,NNE,9.2,18.4,N/A,,Unknown,20,2013-02-15 16:15:00
8:35 AM,53.6,19.4,26,30.41,10.0,NNE,9.2,-,N/A,,Unknown,30,2013-02-15 16:35:00
8:55 AM,55.4,19.4,25,30.41,10.0,North,13.8,18.4,N/A,,Unknown,10,2013-02-15 16:55:00
9:15 AM,55.4,19.4,25,30.41,10.0,North,10.4,21.9,N/A,,Unknown,360,2013-02-15 17:15:00
9:35 AM,55.4,19.4,25,30.41,10.0,North,12.7,18.4,N/A,,Unknown,10,2013-02-15 17:35:00
9:55 AM,57.2,19.4,23,30.41,10.0,North,13.8,19.6,N/A,,Unknown,350,2013-02-15 17:55:00
10:15 AM,57.2,19.4,23,30.41,10.0,NE,9.2,-,N/A,,Unknown,40,2013-02-15 18:15:00
10:55 AM,59.0,17.6,20,30.40,10.0,North,13.8,20.7,N/A,,Unknown,350,2013-02-15 18:55:00
11:15 AM,59.0,17.6,20,30.40,10.0,NNE,12.7,18.4,N/A,,Unknown,30,2013-02-15 19:15:00
11:35 AM,59.0,17.6,20,30.39,10.0,NNE,11.5,16.1,N/A,,Unknown,30,2013-02-15 19:35:00
11:55 AM,59.0,17.6,20,30.38,10.0,Calm,Calm,-,N/A,,Unknown,0,2013-02-15 19:55:00
12:15 PM,62.6,17.6,18,30.37,10.0,NNE,12.7,16.1,N/A,,Unknown,20,2013-02-15 20:15:00
12:35 PM,62.6,17.6,18,30.36,10.0,NNW,11.5,-,N/A,,Unknown,340,2013-02-15 20:35:00
12:55 PM,62.6,17.6,18,30.36,10.0,NE,9.2,-,N/A,,Unknown,40,2013-02-15 20:55:00
1:15 PM,62.6,17.6,18,30.35,10.0,NE,6.9,-,N/A,,Unknown,40,2013-02-15 21:15:00
1:35 PM,64.4,17.6,16,30.35,10.0,NNE,9.2,17.3,N/A,,Unknown,30,2013-02-15 21:35:00
1:55 PM,64.4,17.6,16,30.34,10.0,NNE,12.7,-,N/A,,Unknown,20,2013-02-15 21:55:00
2:15 PM,64.4,17.6,16,30.34,10.0,NE,8.1,-,N/A,,Unknown,40,2013-02-15 22:15:00
2:35 PM,64.4,17.6,16,30.33,10.0,North,9.2,-,N/A,,Unknown,360,2013-02-15 22:35:00
2:55 PM,66.2,17.6,15,30.32,10.0,North,15.0,20.7,N/A,,Unknown,350,2013-02-15 22:55:00
3:15 PM,66.2,15.8,14,30.32,10.0,North,10.4,19.6,N/A,,Unknown,10,2013-02-15 23:15:00
3:35 PM,66.2,15.8,14,30.32,10.0,North,15.0,-,N/A,,Unknown,10,2013-02-15 23:35:00
3:55 PM,64.4,15.8,15,30.32,10.0,North,12.7,-,N/A,,Unknown,10,2013-02-15 23:55:00
4:15 PM,64.4,17.6,16,30.31,10.0,North,6.9,-,N/A,,Unknown,10,2013-02-16 00:15:00
4:35 PM,64.4,17.6,16,30.31,10.0,NNE,6.9,-,N/A,,Unknown,30,2013-02-16 00:35:00
4:55 PM,64.4,17.6,16,30.31,10.0,NNE,5.8,-,N/A,,Unknown,30,2013-02-16 00:55:00
5:15 PM,60.8,19.4,20,30.32,10.0,Calm,Calm,-,N/A,,Unknown,0,2013-02-16 01:15:00
5:35 PM,55.4,19.4,25,30.32,10.0,NE,4.6,-,N/A,,Unknown,40,2013-02-16 01:35:00
5:55 PM,55.4,19.4,25,30.32,10.0,Calm,Calm,-,N/A,,Unknown,0,2013-02-16 01:55:00
6:15 PM,53.6,19.4,26,30.32,10.0,Calm,Calm,-,N/A,,Unknown,0,2013-02-16 02:15:00
6:35 PM,51.8,24.8,35,30.32,10.0,Calm,Calm,-,N/A,,Unknown,0,2013-02-16 02:35:00
6:55 PM,50.0,24.8,37,30.33,10.0,Calm,Calm,-,N/A,,Unknown,0,2013-02-16 02:55:00
7:15 PM,50.0,23.0,35,30.33,10.0,Calm,Calm,-,N/A,,Unknown,0,2013-02-16 03:15:00
7:35 PM,51.8,19.4,28,30.34,10.0,North,6.9,-,N/A,,Unknown,350,2013-02-16 03:35:00
7:55 PM,51.8,19.4,28,30.34,10.0,Calm,Calm,-,N/A,,Unknown,0,2013-02-16 03:55:00
8:15 PM,50.0,19.4,30,30.35,10.0,North,6.9,-,N/A,,Unknown,360,2013-02-16 04:15:00
8:35 PM,50.0,19.4,30,30.35,10.0,North,8.1,-,N/A,,Unknown,360,2013-02-16 04:35:00
8:55 PM,51.8,19.4,28,30.36,10.0,Calm,Calm,-,N/A,,Unknown,0,2013-02-16 04:55:00
9:15 PM,46.4,21.2,37,30.37,10.0,Calm,Calm,-,N/A,,Unknown,0,2013-02-16 05:15:00
9:35 PM,48.2,19.4,32,30.37,10.0,Calm,Calm,-,N/A,,Unknown,0,2013-02-16 05:35:00
9:55 PM,44.6,21.2,39,30.36,10.0,Calm,Calm,-,N/A,,Unknown,0,2013-02-16 05:55:00
10:15 PM,48.2,21.2,34,30.36,10.0,North,8.1,-,N/A,,Unknown,10,2013-02-16 06:15:00
10:55 PM,48.2,19.4,32,30.37,10.0,Calm,Calm,-,N/A,,Unknown,0,2013-02-16 06:55:00
11:15 PM,48.2,19.4,32,30.36,10.0,NNW,6.9,-,N/A,,Unknown,340,2013-02-16 07:15:00
11:35 PM,48.2,19.4,32,30.36,10.0,NNW,9.2,-,N/A,,Unknown,340,2013-02-16 07:35:00
11:55 PM,46.4,21.2,37,30.36,10.0,NNW,6.9,-,N/A,,Unknown,330,2013-02-16 07:55:00